QPF
0.00 0.00 0.00 0.00 0.00 0.00 0.00 0.00 0.00 0.00 0.00 0.00 0.00 0.00 0.00 0.00 0.00 0.00 0.00 0.00 0.02 0.15 0.54 0.31 0.12 0.08 0.06 0.00 0.00 0.00 0.00 0.00 0.00 0.00 0.00 0.00 0.00 0.00 0.00 0.00 0.00 0.00 0.00
0.00 0.00 0.00 0.00 0.00 0.00 0.00 0.00 0.00 0.00 0.00 0.00 0.00 0.00 0.00 0.00 0.00 0.00 0.00 0.00 0.02 0.06 0.47 0.39 0.14 0.05 0.03 0.01 0.00 0.00 0.00 0.00 0.00 0.00 0.00 0.00 0.00 0.00 0.00 0.00 0.00 0.00 0.00
0.00 0.00 0.00 0.00 0.00 0.00 0.00 0.00 0.00 0.00 0.00 0.00 0.00 0.00 0.00 0.00 0.00 0.00 0.00 0.00 0.08 0.12 0.20 0.32 0.20 0.05 0.01 0.00 0.00 0.00 0.00 0.00 0.00 0.00 0.00 0.00 0.00 0.00 0.00 0.00 0.00 0.00 0.00
0.00 0.00 0.00 0.00 0.00 0.00 0.00 0.00 0.00 0.00 0.00 0.00 0.00 0.00 0.00 0.01 0.00 0.00 0.00 0.01 0.04 0.12 0.14 0.21 0.28 0.08 0.01 0.00 0.00 0.00 0.00 0.00 0.00 0.00 0.00 0.00 0.00 0.00 0.00 0.00 0.00 0.00 0.00
0.00 0.00 0.00 0.00 0.00 0.00 0.00 0.00 0.00 0.00 0.00 0.00 0.00 0.00 0.00 0.00 0.00 0.00 0.00 0.01 0.01 0.05 0.16 0.16 0.22 0.11 0.02 0.01 0.00 0.00 0.00 0.00 0.00 0.00 0.00 0.00 0.00 0.00 0.00 0.00 0.00 0.00 0.00
0.00 0.00 0.00 0.00 0.00 0.00 0.00 0.00 0.00 0.00 0.00 0.00 0.00 0.00 0.00 0.00 0.00 0.00 0.01 0.01 0.01 0.01 0.07 0.19 0.15 0.09 0.04 0.01 0.00 0.00 0.00 0.00 0.00 0.00 0.00 0.00 0.00 0.00 0.00 0.00 0.00 0.00 0.00
0.00 0.00 0.00 0.00 0.00 0.00 0.00 0.00 0.00 0.00 0.00 0.00 0.00 0.00 0.00 0.00 0.00 0.00 0.00 0.02 0.06 0.03 0.00 0.05 0.11 0.07 0.03 0.01 0.01 0.00 0.00 0.00 0.00 0.00 0.00 0.00 0.00 0.00 0.00 0.00 0.00 0.00 0.00
0.00 0.00 0.00 0.00 0.00 0.00 0.00 0.00 0.00 0.01 0.00 0.00 0.03 0.01 0.00 0.00 0.00 0.00 0.00 0.00 0.04 0.06 0.03 0.00 0.01 0.04 0.04 0.01 0.01 0.00 0.00 0.00 0.00 0.00 0.00 0.00 0.00 0.00 0.00 0.00 0.00 0.00 0.00
0.00 0.00 0.00 0.00 0.00 0.00 0.00 0.00 0.01 0.01 0.02 0.06 0.03 0.00 0.00 0.00 0.00 0.00 0.00 0.00 0.01 0.02 0.05 0.04 0.02 0.01 0.02 0.02 0.00 0.00 0.00 0.00 0.00 0.00 0.00 0.01 0.01 0.01 0.01 0.01 0.00 0.01 0.00
0.00 0.00 0.00 0.00 0.00 0.00 0.00 0.00 0.00 0.01 0.04 0.03 0.01 0.00 0.00 0.00 0.00 0.00 0.00 0.00 0.00 0.01 0.02 0.06 0.23 0.29 0.11 0.03 0.01 0.02 0.01 0.00 0.02 0.04 0.07 0.09 0.11 0.08 0.07 0.07 0.06 0.05 0.04
0.00 0.00 0.00 0.00 0.00 0.00 0.00 0.00 0.01 0.01 0.03 0.03 0.01 0.00 0.00 0.00 0.00 0.00 0.00 0.00 0.00 0.00 0.00 0.05 0.24 0.48 0.35 0.22 0.11 0.08 0.06 0.03 0.02 0.07 0.15 0.21 0.21 0.22 0.18 0.15 0.11 0.08 0.07
0.00 0.00 0.00 0.00 0.00 0.00 0.01 0.01 0.01 0.01 0.03 0.00 0.00 0.00 0.00 0.00 0.00 0.00 0.00 0.00 0.00 0.00 0.00 0.02 0.18 0.36 0.34 0.24 0.29 0.26 0.19 0.21 0.15 0.09 0.11 0.15 0.16 0.20 0.18 0.16 0.10 0.07 0.07
0.00 0.00 0.00 0.00 0.00 0.03 0.04 0.01 0.01 0.01 0.02 0.01 0.00 0.00 0.01 0.00 0.00 0.00 0.00 0.00 0.00 0.00 0.00 0.01 0.12 0.23 0.23 0.25 0.32 0.33 0.35 0.42 0.38 0.20 0.13 0.12 0.12 0.11 0.11 0.08 0.06 0.05 0.05
0.00 0.00 0.02 0.02 0.00 0.01 0.07 0.12 0.15 0.13 0.09 0.04 0.00 0.00 0.00 0.01 0.00 0.00 0.00 0.00 0.00 0.00 0.01 0.01 0.02 0.16 0.28 0.29 0.32 0.45 0.56 0.57 0.46 0.30 0.19 0.13 0.08 0.06 0.06 0.05 0.04 0.04 0.03
0.00 0.02 0.05 0.04 0.01 0.00 0.04 0.14 0.15 0.13 0.07 0.02 0.00 0.00 0.00 0.00 0.01 0.00 0.00 0.00 0.00 0.00 0.00 0.01 0.00 0.01 0.13 0.32 0.30 0.43 0.36 0.33 0.28 0.13 0.07 0.10 0.10 0.08 0.08 0.08 0.06 0.03 0.02
0.00 0.01 0.05 0.06 0.04 0.00 0.01 0.09 0.13 0.10 0.05 0.01 0.00 0.00 0.00 0.00 0.00 0.01 0.01 0.01 0.01 0.01 0.00 0.00 0.00 0.02 0.04 0.15 0.23 0.35 0.25 0.16 0.19 0.13 0.04 0.03 0.06 0.06 0.05 0.03 0.02 0.01 0.01
0.00 0.00 0.06 0.06 0.04 0.06 0.02 0.05 0.07 0.06 0.02 0.00 0.00 0.00 0.00 0.00 0.00 0.01 0.01 0.02 0.02 0.01 0.01 0.02 0.01 0.01 0.04 0.10 0.14 0.25 0.17 0.07 0.14 0.11 0.05 0.03 0.01 0.01 0.00 0.00 0.00 0.01 0.01
0.00 0.00 0.02 0.01 0.01 0.09 0.18 0.16 0.07 0.03 0.03 0.00 0.00 0.00 0.00 0.00 0.00 0.01 0.02 0.02 0.01 0.02 0.01 0.02 0.02 0.01 0.03 0.04 0.06 0.06 0.05 0.04 0.02 0.02 0.00 0.00 0.00 0.01 0.00 0.00 0.00 0.01 0.01
0.00 0.00 0.00 0.00 0.00 0.02 0.18 0.26 0.24 0.03 0.03 0.01 0.00 0.00 0.00 0.00 0.00 0.01 0.01 0.02 0.01 0.02 0.01 0.01 0.01 0.01 0.01 0.05 0.04 0.02 0.00 0.01 0.02 0.01 0.01 0.01 0.01 0.04 0.01 0.00 0.00 0.00 0.01
0.00 0.00 0.00 0.00 0.00 0.01 0.04 0.16 0.41 0.22 0.06 0.03 0.01 0.00 0.00 0.00 0.00 0.00 0.01 0.02 0.01 0.02 0.03 0.02 0.02 0.03 0.01 0.03 0.05 0.04 0.02 0.03 0.03 0.02 0.03 0.03 0.03 0.03 0.01 0.00 0.00 0.00 0.01
0.00 0.00 0.00 0.00 0.00 0.00 0.00 0.05 0.27 0.54 0.33 0.11 0.02 0.00 0.00 0.00 0.00 0.00 0.00 0.01 0.01 0.01 0.02 0.02 0.02 0.02 0.01 0.02 0.03 0.04 0.01 0.01 0.01 0.01 0.02 0.05 0.04 0.02 0.01 0.00 0.00 0.02 0.04
0.00 0.00 0.00 0.00 0.00 0.01 0.01 0.01 0.10 0.60 0.75 0.41 0.09 0.03 0.02 0.00 0.00 0.00 0.00 0.00 0.00 0.01 0.01 0.01 0.01 0.01 0.01 0.03 0.03 0.04 0.05 0.04 0.01 0.02 0.04 0.08 0.05 0.03 0.02 0.03 0.05 0.06 0.05
0.00 0.00 0.00 0.00 0.00 0.01 0.02 0.01 0.03 0.11 0.48 0.72 0.42 0.10 0.04 0.02 0.02 0.02 0.02 0.02 0.00 0.00 0.00 0.00 0.00 0.01 0.01 0.02 0.04 0.05 0.07 0.06 0.04 0.08 0.11 0.12 0.10 0.09 0.09 0.07 0.06 0.06 0.06
0.00 0.00 0.00 0.00 0.00 0.00 0.01 0.02 0.02 0.05 0.08 0.23 0.41 0.29 0.14 0.08 0.13 0.23 0.20 0.25 0.25 0.09 0.04 0.04 0.02 0.04 0.05 0.06 0.06 0.09 0.11 0.12 0.13 0.16 0.14 0.12 0.12 0.11 0.11 0.10 0.08 0.05 0.02
0.00 0.00 0.00 0.00 0.00 0.00 0.00 0.00 0.01 0.03 0.04 0.07 0.11 0.20 0.46 0.29 0.12 0.12 0.17 0.12 0.19 0.20 0.06 0.04 0.04 0.03 0.04 0.06 0.06 0.09 0.11 0.12 0.14 0.16 0.17 0.15 0.11 0.08 0.05 0.02 0.00 0.00 0.00
0.00 0.00 0.00 0.00 0.00 0.00 0.00 0.00 0.00 0.02 0.03 0.03 0.05 0.11 0.25 0.25 0.07 0.02 0.04 0.08 0.08 0.08 0.07 0.05 0.03 0.05 0.06 0.07 0.07 0.09 0.14 0.15 0.12 0.09 0.06 0.04 0.02 0.01 0.01 0.00 0.00 0.00 0.00
MSLP
1003.39 1003.44 1003.13 1002.91 1002.58 1002.43 1002.48 1002.72 1003.14 1003.69 1004.40 1005.18 1006.04 1007.09 1007.81 1008.63 1008.96 1009.25 1009.43 1009.81 1010.12 1010.46 1010.62 1010.30 1011.70 1012.68 1013.78 1014.49 1015.31 1016.31 1017.09 1018.24 1018.92 1019.93 1021.04 1021.60 1021.98 1022.45 1022.42 1022.54 1022.80 1023.18 1023.66
1003.56 1003.03 1002.86 1002.42 1002.09 1002.15 1002.48 1002.90 1003.01 1003.51 1003.84 1004.34 1005.24 1006.04 1007.17 1007.89 1008.30 1008.54 1008.84 1009.04 1009.36 1009.70 1009.76 1010.01 1010.41 1011.95 1013.29 1014.26 1014.93 1015.44 1016.52 1017.59 1018.58 1018.70 1019.78 1020.84 1022.00 1022.23 1022.40 1022.46 1022.71 1022.96 1023.27
1003.54 1003.15 1002.67 1002.36 1002.08 1002.01 1002.39 1002.59 1002.80 1003.42 1003.60 1004.19 1005.00 1005.84 1006.82 1007.44 1007.80 1007.96 1008.33 1008.53 1008.66 1008.80 1009.17 1009.47 1010.37 1011.47 1012.52 1013.71 1014.25 1015.01 1015.62 1016.57 1018.11 1018.35 1018.08 1019.32 1019.87 1021.18 1021.91 1022.25 1022.48 1022.79 1022.99
1003.51 1003.39 1002.92 1002.23 1002.03 1001.85 1002.00 1002.20 1002.58 1003.05 1003.33 1003.75 1004.36 1005.22 1005.72 1006.60 1006.93 1007.32 1007.94 1008.24 1008.51 1008.54 1008.75 1009.54 1009.95 1011.14 1012.06 1013.11 1013.66 1014.65 1015.17 1015.90 1016.80 1017.97 1018.23 1018.06 1018.92 1019.63 1021.03 1021.68 1021.96 1022.29 1022.52
1003.89 1003.61 1003.19 1002.75 1001.98 1001.68 1001.83 1002.08 1002.48 1002.80 1003.18 1003.29 1003.66 1004.64 1005.46 1006.01 1006.48 1007.07 1007.72 1008.09 1008.52 1008.80 1009.12 1009.50 1010.26 1010.94 1011.81 1012.49 1013.30 1014.39 1014.98 1015.37 1015.94 1016.78 1017.55 1018.09 1018.70 1019.01 1019.35 1019.90 1021.03 1021.74 1021.78
1003.68 1003.64 1003.33 1002.86 1002.17 1002.11 1002.11 1002.25 1002.38 1002.79 1003.42 1003.65 1003.58 1003.92 1004.90 1005.48 1006.16 1006.77 1007.23 1007.63 1008.19 1008.73 1009.23 1009.70 1010.14 1010.99 1011.63 1012.38 1013.25 1013.93 1014.57 1015.06 1015.62 1016.18 1016.83 1017.04 1017.48 1018.13 1018.54 1019.25 1020.06 1020.48 1020.89
1003.82 1003.61 1003.32 1002.83 1002.36 1002.12 1002.41 1002.38 1002.51 1002.73 1003.15 1003.43 1003.90 1003.94 1004.51 1004.91 1005.57 1006.26 1006.82 1007.17 1007.68 1008.18 1008.82 1009.42 1010.03 1010.68 1011.27 1012.38 1013.07 1013.72 1014.25 1014.76 1015.13 1015.78 1016.37 1016.75 1017.07 1017.64 1018.24 1018.87 1019.82 1020.46 1020.85
1003.86 1003.73 1003.43 1003.12 1002.69 1002.34 1002.11 1002.47 1002.53 1002.65 1003.00 1003.18 1003.80 1004.40 1004.40 1004.58 1005.23 1005.83 1006.41 1006.83 1007.18 1007.61 1008.19 1008.91 1009.65 1010.45 1011.13 1011.86 1012.64 1013.38 1013.91 1014.41 1014.93 1015.60 1016.16 1016.61 1017.18 1017.61 1017.96 1018.63 1019.38 1020.25 1020.87
1004.14 1003.98 1003.57 1003.25 1002.63 1002.01 1001.69 1002.15 1002.32 1002.46 1002.62 1002.99 1003.48 1004.24 1004.71 1004.73 1005.18 1005.86 1006.30 1006.60 1006.96 1007.22 1007.73 1008.43 1009.06 1009.83 1010.47 1011.18 1011.95 1012.67 1013.33 1013.98 1014.54 1015.21 1015.93 1016.57 1017.33 1017.85 1018.18 1018.50 1019.22 1019.68 1020.91
1004.33 1004.13 1003.71 1003.21 1002.75 1001.64 1001.05 1001.42 1001.84 1002.06 1002.22 1002.46 1002.92 1003.67 1004.34 1004.59 1005.17 1005.65 1006.11 1006.50 1006.92 1007.15 1007.48 1007.91 1008.28 1009.06 1009.87 1010.32 1011.29 1012.03 1012.65 1013.29 1014.09 1014.69 1015.47 1016.43 1017.19 1017.90 1018.18 1018.79 1019.47 1019.94 1020.52
1004.31 1004.10 1003.54 1003.00 1002.74 1002.04 1001.42 1001.45 1001.62 1001.75 1001.86 1002.09 1002.44 1003.19 1004.06 1004.47 1005.10 1005.55 1005.91 1006.21 1006.52 1006.84 1007.23 1007.46 1007.63 1008.02 1008.32 1009.63 1010.41 1011.20 1011.98 1012.63 1013.39 1014.29 1014.92 1016.01 1016.91 1017.77 1018.52 1019.19 1019.37 1019.88 1020.27
1004.07 1003.95 1003.39 1002.39 1002.65 1002.64 1001.96 1001.47 1001.41 1001.44 1001.49 1001.70 1002.07 1002.62 1003.55 1004.09 1004.76 1005.36 1005.72 1006.15 1006.46 1006.60 1006.73 1007.01 1007.24 1007.09 1007.38 1008.27 1008.88 1010.02 1011.05 1011.95 1012.80 1013.35 1014.60 1015.54 1016.62 1017.38 1018.01 1018.74 1018.93 1019.17 1019.78
1003.64 1003.67 1003.17 1002.73 1002.40 1002.69 1002.45 1001.34 1001.13 1001.09 1001.41 1001.60 1001.87 1002.22 1003.05 1003.63 1004.42 1005.04 1005.57 1005.95 1006.26 1006.46 1006.54 1006.67 1006.73 1006.71 1006.63 1007.47 1008.33 1008.82 1010.15 1011.10 1012.03 1012.80 1013.79 1014.83 1015.99 1016.86 1017.42 1017.79 1018.49 1018.96 1019.59
1003.43 1003.37 1003.13 1002.93 1002.75 1003.25 1002.94 1001.98 1000.95 1000.97 1001.31 1001.63 1001.86 1002.12 1002.64 1003.20 1004.14 1004.85 1005.40 1005.83 1006.10 1006.34 1006.58 1006.72 1006.76 1006.75 1006.69 1007.01 1007.89 1008.82 1009.25 1010.26 1011.50 1012.78 1013.59 1014.68 1015.54 1016.21 1017.00 1017.73 1018.51 1019.20 1019.93
1003.35 1003.33 1003.28 1003.05 1003.55 1003.56 1003.09 1002.30 1001.25 1000.96 1001.16 1001.44 1001.80 1002.03 1002.45 1003.05 1003.93 1004.59 1005.25 1005.75 1006.11 1006.50 1006.80 1007.05 1007.21 1007.21 1007.24 1007.48 1008.30 1009.33 1010.22 1011.12 1012.63 1014.07 1014.99 1015.94 1016.44 1017.06 1017.75 1018.44 1019.34 1019.91 1020.69
1003.59 1003.76 1003.57 1003.62 1004.01 1003.88 1003.51 1002.83 1001.93 1000.82 1000.89 1001.16 1001.54 1001.83 1002.23 1003.11 1003.93 1004.60 1005.21 1005.73 1006.16 1006.64 1007.06 1007.48 1007.72 1008.10 1008.39 1008.58 1009.26 1009.93 1011.02 1012.66 1013.85 1014.85 1016.10 1017.35 1018.14 1018.73 1019.40 1020.08 1020.76 1021.25 1021.85
1004.27 1004.35 1004.26 1004.25 1004.13 1004.16 1003.89 1002.95 1002.25 1001.53 1000.48 1000.87 1001.20 1001.47 1001.97 1002.99 1003.86 1004.59 1005.34 1005.99 1006.50 1007.13 1007.86 1008.46 1008.85 1009.43 1009.78 1009.81 1010.67 1011.44 1012.44 1013.85 1014.94 1015.60 1017.19 1018.38 1019.68 1020.08 1020.65 1021.51 1022.24 1023.06 1023.74
1005.06 1005.15 1005.19 1004.92 1004.86 1004.54 1003.74 1002.96 1002.07 1001.35 1000.35 1000.48 1000.74 1001.17 1001.73 1002.73 1003.69 1004.57 1005.48 1006.42 1007.20 1007.92 1008.75 1009.42 1010.14 1010.56 1011.39 1011.30 1011.78 1012.63 1013.80 1015.15 1016.58 1017.65 1018.51 1019.29 1020.41 1021.47 1021.67 1022.40 1023.56 1024.73 1025.58
1006.12 1006.05 1005.88 1005.51 1005.30 1004.93 1004.32 1003.39 1001.88 1000.69 1000.10 1000.22 1000.53 1000.98 1001.62 1002.64 1003.64 1004.84 1005.95 1006.98 1007.99 1009.01 1009.85 1010.62 1011.14 1011.72 1012.89 1013.21 1012.82 1013.29 1015.16 1016.66 1018.05 1019.04 1019.87 1020.36 1021.52 1022.30 1022.60 1023.09 1024.46 1025.93 1027.15
1006.92 1006.76 1006.33 1006.08 1005.96 1005.44 1004.81 1003.18 1002.06 1001.27 1000.41 1000.38 1000.41 1000.95 1001.91 1002.98 1003.95 1005.18 1006.46 1007.71 1008.69 1009.81 1010.72 1011.49 1012.23 1012.89 1013.52 1014.24 1014.47 1014.36 1015.64 1017.26 1018.92 1020.36 1021.14 1021.91 1022.23 1023.34 1023.69 1024.11 1025.32 1026.39 1027.97
1007.49 1007.42 1007.12 1006.79 1006.66 1006.13 1005.43 1004.43 1003.35 1002.57 1002.39 1001.01 1000.62 1001.55 1002.43 1003.43 1004.50 1005.76 1006.87 1008.05 1009.31 1010.42 1011.58 1012.28 1013.33 1013.90 1014.49 1015.15 1015.56 1016.19 1016.85 1018.05 1019.44 1020.90 1022.11 1023.11 1023.52 1024.08 1024.93 1025.30 1026.17 1027.21 1028.48
1008.12 1008.06 1007.85 1007.44 1007.06 1006.71 1005.96 1005.13 1004.73 1004.59 1003.21 1002.40 1002.07 1002.47 1003.34 1004.05 1004.96 1006.25 1007.76 1008.59 1009.50 1010.80 1012.13 1012.89 1014.14 1015.19 1015.82 1016.36 1016.73 1017.11 1018.06 1019.38 1020.23 1021.79 1023.29 1024.13 1024.75 1025.31 1026.39 1027.03 1027.61 1028.26 1028.85
1008.93 1008.88 1008.70 1008.26 1007.79 1007.52 1007.21 1006.66 1006.18 1005.53 1004.69 1003.66 1003.98 1003.82 1004.56 1005.11 1005.90 1007.12 1008.25 1009.27 1010.09 1010.97 1012.41 1013.39 1014.64 1016.08 1017.05 1017.82 1018.33 1018.79 1019.54 1020.47 1021.56 1022.99 1024.14 1025.17 1026.37 1026.82 1027.26 1028.22 1029.23 1029.47 1029.79
1009.70 1009.49 1009.35 1009.12 1008.62 1008.26 1007.98 1007.99 1007.56 1006.35 1005.86 1005.71 1005.17 1005.39 1005.46 1005.98 1007.61 1008.41 1009.39 1010.41 1010.54 1011.97 1012.93 1014.03 1015.21 1016.48 1017.92 1018.90 1019.20 1020.05 1020.94 1022.14 1022.88 1024.38 1025.52 1026.41 1027.52 1028.35 1028.86 1028.94 1029.80 1030.33 1030.52
1010.76 1010.52 1010.18 1009.93 1009.84 1009.28 1008.73 1008.43 1008.17 1008.22 1008.25 1007.95 1007.21 1007.78 1007.45 1008.45 1008.58 1009.46 1010.65 1011.25 1012.39 1012.13 1013.56 1014.77 1016.19 1016.59 1017.81 1019.82 1020.25 1020.79 1021.69 1023.09 1024.32 1025.10 1026.71 1027.53 1028.32 1029.07 1029.54 1029.97 1030.36 1030.74 1031.53
1011.87 1011.60 1011.33 1010.91 1010.58 1010.14 1009.88 1009.78 1009.48 1009.06 1008.98 1009.08 1008.95 1009.09 1009.23 1009.25 1009.71 1010.94 1012.27 1013.37 1014.08 1014.20 1015.42 1016.07 1016.87 1017.94 1018.72 1020.42 1021.29 1022.05 1022.96 1023.71 1025.02 1025.55 1027.03 1028.05 1028.82 1029.61 1030.06 1030.24 1031.18 1032.05 1032.62
Thickness
5680 5685 5689 5691 5695 5695 5694 5690 5689 5686 5682 5676 5669 5660 5655 5647 5641 5636 5630 5627 5622 5619 5614 5624 5618 5617 5613 5616 5615 5608 5605 5597 5597 5591 5586 5587 5588 5588 5592 5593 5594 5593 5591
5671 5680 5683 5686 5689 5689 5685 5681 5682 5679 5679 5677 5670 5664 5654 5648 5641 5637 5632 5628 5622 5613 5611 5616 5622 5616 5612 5609 5610 5611 5606 5599 5596 5598 5593 5586 5584 5586 5589 5590 5590 5590 5589
5662 5668 5674 5678 5680 5680 5676 5676 5677 5673 5675 5671 5666 5659 5651 5645 5640 5636 5630 5627 5622 5615 5611 5615 5614 5612 5612 5608 5610 5610 5610 5605 5597 5600 5605 5593 5597 5589 5587 5587 5587 5587 5587
5654 5657 5662 5670 5673 5673 5672 5673 5673 5670 5671 5668 5665 5657 5654 5645 5640 5635 5628 5624 5620 5615 5610 5609 5613 5611 5610 5608 5610 5607 5609 5605 5602 5597 5601 5605 5601 5597 5587 5586 5586 5586 5585
5639 5643 5650 5656 5665 5666 5665 5666 5666 5666 5665 5667 5665 5658 5651 5646 5640 5632 5624 5620 5616 5613 5607 5607 5606 5607 5608 5609 5609 5604 5605 5607 5606 5603 5600 5598 5596 5597 5597 5594 5587 5584 5586
5632 5635 5640 5647 5654 5653 5654 5656 5659 5658 5655 5657 5660 5659 5651 5645 5637 5629 5623 5620 5615 5609 5604 5603 5604 5602 5604 5605 5603 5603 5603 5604 5604 5604 5602 5602 5600 5595 5594 5592 5590 5590 5587
5620 5624 5627 5635 5642 5644 5642 5647 5650 5652 5650 5651 5649 5652 5649 5645 5638 5629 5623 5619 5616 5613 5609 5605 5602 5602 5604 5599 5599 5598 5601 5602 5602 5601 5599 5600 5599 5596 5593 5591 5584 5580 5579
5610 5613 5617 5623 5629 5633 5637 5638 5643 5646 5646 5648 5643 5640 5644 5643 5637 5628 5622 5619 5616 5613 5611 5607 5604 5600 5602 5601 5598 5596 5598 5600 5599 5595 5594 5594 5592 5591 5589 5586 5581 5575 5573
5595 5600 5605 5611 5619 5626 5634 5632 5636 5640 5643 5642 5640 5635 5634 5633 5630 5623 5620 5617 5615 5614 5611 5608 5606 5603 5602 5601 5600 5597 5597 5598 5597 5594 5590 5588 5584 5583 5582 5581 5576 5574 5564
5582 5586 5592 5600 5607 5619 5628 5632 5631 5636 5639 5640 5639 5634 5630 5630 5625 5620 5617 5614 5612 5611 5609 5609 5608 5604 5601 5604 5599 5598 5597 5596 5595 5593 5589 5583 5579 5575 5574 5571 5566 5564 5560
5571 5575 5584 5593 5597 5604 5615 5621 5624 5629 5633 5636 5638 5633 5627 5625 5619 5616 5614 5612 5611 5610 5608 5606 5605 5604 5605 5601 5599 5598 5596 5594 5592 5589 5587 5579 5573 5569 5564 5559 5560 5557 5555
5564 5566 5574 5586 5587 5587 5600 5610 5617 5622 5628 5632 5633 5632 5626 5622 5616 5613 5612 5609 5607 5606 5606 5606 5602 5603 5604 5603 5604 5600 5597 5594 5590 5589 5582 5576 5567 5563 5561 5555 5556 5557 5553
5558 5559 5565 5571 5578 5577 5584 5602 5611 5618 5620 5625 5627 5628 5625 5621 5614 5611 5608 5606 5603 5602 5602 5603 5598 5597 5603 5602 5601 5603 5596 5594 5590 5588 5584 5576 5567 5563 5559 5558 5554 5551 5546
5551 5553 5558 5559 5563 5563 5571 5586 5604 5610 5612 5616 5619 5622 5622 5619 5613 5609 5605 5602 5600 5598 5597 5596 5594 5592 5597 5599 5598 5596 5598 5594 5588 5581 5578 5571 5566 5562 5556 5551 5547 5542 5536
5545 5546 5550 5552 5547 5553 5562 5573 5593 5601 5604 5609 5612 5615 5616 5614 5610 5606 5602 5599 5596 5593 5592 5590 5590 5590 5590 5592 5589 5584 5581 5578 5569 5560 5556 5551 5549 5545 5543 5540 5534 5530 5524
5537 5537 5541 5541 5533 5540 5549 5561 5576 5595 5599 5603 5607 5610 5611 5608 5604 5601 5598 5595 5592 5588 5585 5584 5584 5581 5580 5577 5575 5574 5568 5558 5552 5549 5544 5536 5532 5528 5525 5520 5515 5513 5508
5524 5525 5524 5526 5526 5529 5537 5554 5566 5578 5596 5599 5603 5606 5607 5602 5599 5596 5593 5591 5585 5580 5573 5569 5569 5567 5566 5567 5563 5558 5553 5546 5541 5540 5531 5523 5515 5512 5509 5503 5497 5490 5483
5506 5509 5508 5513 5514 5517 5531 5547 5561 5574 5591 5597 5601 5602 5602 5600 5595 5593 5585 5578 5573 5570 5564 5558 5554 5553 5549 5553 5551 5547 5541 5533 5525 5519 5514 5510 5502 5493 5492 5485 5477 5468 5461
5488 5491 5496 5501 5503 5507 5519 5534 5555 5574 5588 5594 5596 5597 5596 5594 5589 5582 5574 5567 5561 5555 5550 5547 5543 5540 5532 5532 5538 5537 5525 5515 5507 5501 5497 5494 5484 5478 5477 5474 5462 5450 5438
5475 5479 5486 5491 5492 5494 5505 5528 5545 5560 5582 5585 5589 5587 5588 5581 5577 5570 5563 5556 5551 5545 5540 5536 5532 5528 5525 5521 5521 5524 5516 5505 5494 5484 5479 5473 5472 5464 5461 5458 5447 5436 5422
5465 5468 5473 5476 5479 5484 5494 5510 5526 5537 5542 5566 5580 5576 5574 5569 5564 5558 5554 5547 5541 5534 5528 5525 5519 5516 5512 5509 5508 5505 5501 5493 5483 5473 5464 5456 5453 5448 5441 5437 5429 5419 5407
5454 5457 5461 5465 5470 5475 5484 5500 5511 5519 5528 5543 5553 5556 5553 5554 5552 5547 5540 5538 5534 5526 5518 5515 5507 5500 5497 5495 5493 5492 5485 5476 5470 5459 5447 5440 5435 5430 5419 5412 5405 5398 5389
5443 5445 5448 5454 5459 5464 5468 5480 5492 5503 5511 5529 5528 5535 5535 5539 5538 5533 5529 5525 5522 5518 5509 5503 5495 5486 5479 5474 5473 5471 5465 5458 5451 5440 5430 5422 5410 5406 5401 5391 5381 5374 5368
5433 5438 5441 5443 5450 5455 5459 5463 5475 5489 5497 5505 5512 5515 5520 5524 5516 5516 5512 5508 5510 5499 5494 5487 5480 5474 5466 5460 5459 5453 5446 5437 5431 5419 5410 5402 5391 5383 5376 5372 5362 5353 5346
5420 5426 5433 5436 5437 5444 5450 5456 5464 5465 5471 5479 5490 5493 5501 5496 5500 5498 5494 5491 5485 5489 5478 5472 5465 5465 5458 5443 5440 5437 5431 5419 5409 5403 5389 5381 5371 5362 5356 5349 5341 5333 5322
5408 5413 5420 5425 5430 5437 5441 5443 5448 5454 5460 5465 5472 5473 5476 5482 5480 5477 5471 5466 5463 5465 5457 5454 5449 5443 5439 5427 5420 5414 5407 5401 5389 5384 5372 5362 5354 5345 5337 5333 5321 5309 5301